Winona, MN

1:20 PM CDT on October 14, 2019 (GMT -0500)
Winona Municipal-Conrad

Weather History for KONA - September, 2019

Change the Weather History Date:

Wednesday, September 18, 2019

  Actual Average Record
Temperature  
Mean Temperature 74 °F -  
Max Temperature 78 °F 72 °F 87 °F (1998)
Min Temperature 69 °F 52 °F 33 °F (2012)
Cooling Degree Days 8    
Growing Degree Days 24 (Base 50)    
Moisture  
Dew Point 67 °F    
Average Humidity 81    
Maximum Humidity 94    
Minimum Humidity 69    
Precipitation  
Precipitation 0.03 in - - ()
Sea Level Pressure  
Sea Level Pressure 29.98 in    
Wind  
Wind Speed 4 mph (SSE)    
Max Wind Speed 17 mph    
Max Gust Speed -    
Visibility 10 miles    
Events Rain , Thunderstorm    
Averages and records for this station are not official NWS values.
T = Trace of Precipitation, MM = Missing Value Source: NWS Daily Summary

Daily Weather History Graph

Daily Weather History Graph

Search for Another Location

Airport or City:

Astronomy

Sep. 18, 2019 Rise Set
Actual Time 6:49 AM CDT 7:12 PM CDT
Civil Twilight 6:20 AM CDT 7:40 PM CDT
Nautical Twilight 5:46 AM CDT 8:14 PM CDT
Astronomical Twilight 5:10 AM CDT 8:49 PM CDT
Moon 9:37 PM CDT (9/18) 11:00 AM CDT (9/18)
Length of Visible Light 13h 20m
Length of Day
12h 22m
Waning Gibbous, 82% of the Moon is Illuminated
Sep 18
Waning Gibbous
Sep 21
Last Quarter
Sep 28
New
Oct 5
First Quarter
Oct 13
Full

Hourly Weather History & Observations

Time (CDT) Temp. Dew Point Humidity Pressure Visibility Wind Dir Wind Speed Gust Speed Precip Events Conditions
12:01 AM 69.8 °F 64.4 °F 83% 30.00 in 10.0 mi SSE 4.6 mph - N/A   Clear
12:21 AM 69.8 °F 64.4 °F 83% 30.00 in 10.0 mi SSE 3.5 mph - N/A   Clear
12:41 AM 69.8 °F 66.2 °F 88% 30.00 in 10.0 mi SSE 5.8 mph - N/A   Clear
1:01 AM 69.8 °F 64.4 °F 83% 30.00 in 10.0 mi SSE 5.8 mph - N/A   Clear
1:21 AM 69.8 °F 64.4 °F 83% 30.00 in 10.0 mi SSE 4.6 mph - N/A   Clear
1:41 AM 69.8 °F 64.4 °F 83% 30.00 in 10.0 mi SSE 5.8 mph - N/A   Clear
2:01 AM 69.8 °F 66.2 °F 88% 30.00 in 10.0 mi SSE 5.8 mph - N/A   Clear
2:21 AM 69.8 °F 66.2 °F 88% 29.99 in 10.0 mi SSE 5.8 mph - N/A   Clear
2:41 AM 69.8 °F 66.2 °F 88% 29.99 in 10.0 mi SSE 4.6 mph - N/A   Clear
3:01 AM 69.8 °F 66.2 °F 88% 29.99 in 10.0 mi SSE 4.6 mph - N/A   Clear
3:21 AM 69.8 °F 66.2 °F 88% 29.98 in 10.0 mi SSE 6.9 mph - N/A   Clear
3:42 AM 69.8 °F 64.4 °F 83% 29.98 in 10.0 mi SSE 5.8 mph - N/A   Clear
4:02 AM 69.8 °F 64.4 °F 83% 29.97 in 10.0 mi SSE 4.6 mph - N/A   Clear
4:21 AM 69.8 °F 64.4 °F 83% 29.97 in 10.0 mi SE 6.9 mph - N/A   Clear
4:41 AM 69.8 °F 64.4 °F 83% 29.96 in 10.0 mi SSE 6.9 mph - N/A   Clear
5:01 AM 69.8 °F 66.2 °F 88% 29.95 in 10.0 mi SE 6.9 mph - N/A   Clear
5:21 AM 69.8 °F 66.2 °F 88% 29.96 in 10.0 mi SSE 5.8 mph - N/A   Clear
5:41 AM 69.8 °F 64.4 °F 83% 29.96 in 10.0 mi SSE 6.9 mph - N/A   Clear
6:01 AM 69.8 °F 64.4 °F 83% 29.97 in 10.0 mi SSE 4.6 mph - N/A   Clear
6:21 AM 69.8 °F 64.4 °F 83% 29.98 in 10.0 mi SSE 6.9 mph - N/A   Clear
6:42 AM 69.8 °F 64.4 °F 83% 29.99 in 10.0 mi SE 6.9 mph - N/A   Clear
7:01 AM 69.8 °F 66.2 °F 88% 29.99 in 10.0 mi SE 4.6 mph - N/A   Clear
7:21 AM 69.8 °F 66.2 °F 88% 30.00 in 10.0 mi SE 4.6 mph - N/A   Clear
7:41 AM 69.8 °F 64.4 °F 83% 30.00 in 10.0 mi SE 4.6 mph - N/A   Clear
8:02 AM 71.6 °F 66.2 °F 83% 30.01 in 10.0 mi SE 4.6 mph - N/A   Clear
8:22 AM 75.2 °F 68.0 °F 78% 30.02 in 10.0 mi South 3.5 mph - N/A   Clear
8:41 AM 75.2 °F 68.0 °F 78% 30.02 in 10.0 mi Calm Calm - N/A   Clear
9:02 AM 73.4 °F 66.2 °F 78% 30.02 in 10.0 mi South 3.5 mph - N/A   Clear
9:21 AM 71.6 °F 66.2 °F 83% 30.03 in 10.0 mi Calm Calm - N/A   Clear
9:41 AM 71.6 °F 66.2 °F 83% 30.06 in 10.0 mi NW 8.1 mph - N/A   Mostly Cloudy
10:01 AM 71.6 °F 66.2 °F 83% 30.06 in 10.0 mi Calm Calm - N/A Thunderstorm Overcast
10:21 AM 71.6 °F 66.2 °F 83% 30.06 in 10.0 mi Calm Calm - N/A   Overcast
10:41 AM 69.8 °F 66.2 °F 88% 30.05 in 10.0 mi SSE 3.5 mph - N/A Thunderstorm Overcast
11:01 AM 69.8 °F 66.2 °F 88% 30.05 in 10.0 mi SSE 3.5 mph - N/A Rain Light Rain
11:21 AM 69.8 °F 66.2 °F 88% 30.05 in 10.0 mi SSE 4.6 mph - N/A Rain , Thunderstorm Light Thunderstorms and Rain
11:41 AM 69.8 °F 66.2 °F 88% 30.05 in 7.0 mi SSE 5.8 mph - 0.01 in Rain Light Rain
12:01 PM 69.8 °F 66.2 °F 88% 29.96 in 7.0 mi ESE 17.3 mph - 0.01 in Rain Light Rain
12:21 PM 69.8 °F 68.0 °F 94% 29.97 in 7.0 mi ESE 6.9 mph - 0.01 in Rain Light Rain
12:41 PM 71.6 °F 68.0 °F 88% 29.98 in 10.0 mi Calm Calm - 0.01 in   Clear
1:01 PM 73.4 °F 69.8 °F 88% 29.97 in 10.0 mi SSW 4.6 mph - N/A   Clear
1:21 PM 75.2 °F 68.0 °F 78% 29.96 in 10.0 mi SSE 3.5 mph - 0.01 in   Clear
1:42 PM 77.0 °F 66.2 °F 69% 29.95 in 10.0 mi South 3.5 mph - 0.01 in   Clear
2:01 PM 77.0 °F 66.2 °F 69% 29.95 in 10.0 mi South 3.5 mph - N/A   Clear
2:22 PM 77.0 °F 66.2 °F 69% 29.96 in 10.0 mi SW 9.2 mph - N/A   Clear
2:41 PM 77.0 °F 66.2 °F 69% 29.96 in 10.0 mi SW 4.6 mph - N/A   Clear
3:01 PM 77.0 °F 66.2 °F 69% 29.95 in 10.0 mi SSW 3.5 mph - N/A   Clear
3:21 PM 77.0 °F 68.0 °F 74% 29.94 in 10.0 mi South 3.5 mph - N/A   Clear
3:41 PM 77.0 °F 68.0 °F 74% 29.93 in 10.0 mi South 3.5 mph - N/A   Clear
4:01 PM 77.0 °F 68.0 °F 74% 29.94 in 10.0 mi Calm Calm - N/A   Clear
4:22 PM 78.8 °F 68.0 °F 69% 29.94 in 10.0 mi Calm Calm - N/A   Clear
4:41 PM 78.8 °F 68.0 °F 69% 29.94 in 10.0 mi SSW 3.5 mph - N/A   Clear
5:01 PM 78.8 °F 68.0 °F 69% 29.93 in 10.0 mi South 3.5 mph - N/A   Clear
5:21 PM 77.0 °F 66.2 °F 69% 29.93 in 10.0 mi Calm Calm - N/A   Clear
5:41 PM 77.0 °F 66.2 °F 69% 29.92 in 10.0 mi Calm Calm - N/A   Clear
6:01 PM 77.0 °F 66.2 °F 69% 29.93 in 10.0 mi SSE 3.5 mph - N/A   Scattered Clouds
6:22 PM 77.0 °F 68.0 °F 74% 29.93 in 10.0 mi Calm Calm - N/A   Scattered Clouds
6:41 PM 77.0 °F 68.0 °F 74% 29.93 in 10.0 mi Calm Calm - N/A   Clear
7:02 PM 75.2 °F 68.0 °F 78% 29.93 in 10.0 mi SSE 4.6 mph - N/A   Clear
7:21 PM 75.2 °F 66.2 °F 73% 29.94 in 10.0 mi SSE 3.5 mph - N/A   Clear
7:41 PM 75.2 °F 68.0 °F 78% 29.94 in 10.0 mi SSE 3.5 mph - N/A   Clear
8:01 PM 75.2 °F 68.0 °F 78% 29.95 in 10.0 mi Calm Calm - N/A   Clear
8:21 PM 75.2 °F 69.8 °F 83% 29.95 in 10.0 mi Calm Calm - N/A   Clear
8:41 PM 75.2 °F 69.8 °F 83% 29.95 in 10.0 mi Calm Calm - N/A   Clear
9:01 PM 75.2 °F 71.6 °F 89% 29.96 in 10.0 mi Calm Calm - N/A   Clear
9:21 PM 73.4 °F 69.8 °F 88% 29.96 in 10.0 mi Calm Calm - N/A   Scattered Clouds
9:42 PM 73.4 °F 69.8 °F 88% 29.97 in 10.0 mi Calm Calm - N/A   Clear
10:01 PM 73.4 °F 69.8 °F 88% 29.97 in 10.0 mi Calm Calm - N/A   Clear
10:21 PM 75.2 °F 69.8 °F 83% 29.96 in 10.0 mi SSE 4.6 mph - N/A   Clear
10:41 PM 75.2 °F 69.8 °F 83% 29.97 in 10.0 mi Calm Calm - N/A   Clear
11:01 PM 75.2 °F 68.0 °F 78% 29.97 in 10.0 mi Calm Calm - N/A   Scattered Clouds
11:21 PM 75.2 °F 68.0 °F 78% 29.97 in 10.0 mi Calm Calm - N/A   Scattered Clouds
11:41 PM 75.2 °F 68.0 °F 78% 29.98 in 10.0 mi Calm Calm - N/A   Scattered Clouds